Weather in Viseu

Portugal     40°39′16″N   7°55′10″W
temp.,
°C
wind,
m/s
gust,
m/s
humid.,
%
clouds,
%
prec.,
mm/h
press.,
hPa
HPBL,
m
5 august, thu
thu501:00+12nnw11890 0.0 102010
04:00+12nnw11780 0.0 101911
07:00+13nnw11685 0.0 101913
10:00+23w23341 0.0 1018635
13:00+28w453616 0.0 10171287
16:00+27wnw574450 0.0 10161206
19:00+23wnw45520 0.0 1015948
22:00+15nw22920 0.0 101727
6 august, fri
fri601:00+13nw11971 0.0 101612
04:00+12nw11972 0.0 101516
07:00+10nnw11975 0.0 101514
10:00+18w12595 0.0 1015685
13:00+24w343312 0.0 10121341
16:00+25w65335 0.0 10111269
19:00+20wnw564874 0.0 1011950
22:00+12w2288100 0.0 101341
7 august, sat
sat701:00+11wnw11964 0.0 101310
04:00+11s009697 0.0 101213
07:00+13ne009399 0.5 101276
10:00+17wsw137631 0.1 1013673
13:00+22wnw45400 0.2 10131831
16:00+23wnw55350 0.0 10131864
19:00+19nw56490 0.0 10141077
22:00+12nw22930 0.0 101732
8 august, sun
sun801:00+10nnw11960 0.0 101812
04:00+10n11950 0.0 101711
07:00+9nne22920 0.0 101814
10:00+20nnw12469 0.0 1018753
13:00+26w222614 0.0 10171714
16:00+27wnw4325100 0.0 10152092
19:00+21nw4446100 0.0 1017660
22:00+15nw2268100 0.0 101951
9 august, mon
mon901:00+12nnw117981 0.0 101912
04:00+11n21800 0.0 101912
07:00+12nne22740 0.0 101915
10:00+24ne12360 0.0 1019653
13:00+30sw11210 0.0 10181853
16:00+31w32200 0.0 10172474
19:00+26wnw45340 0.0 1017637
22:00+16nw11660 0.0 102012